Date String (YYYY-MM-DD hh:mm:ss) UTC,Instrument flags,Ambient pressure (hPa),Sample flow (lpm),Bypass flow (lpm),Sample temperature (°C),Ambient temperature (°C),ASC tube jacket temperature (°C),LED temperature (°C),Box temperature (°C),Sample RH (%),Span deviation,Mass concentration (μg/m³),Mass concentration (μg/m³),Mass concentration (μg/m³)
DateTimeUTC,F1_M11,P_M11,Q1_M11,Q2_M11,T1_M11,T2_M11,T3_M11,T4_M11,T5_M11,U1_M11,ZSPAN_M11,X0_M11,X2_M11,X1_M11
2021-08-22 14:00:00,,0826.5,5.00,0.00,29.5,28.8,00.0,38.7,31.3,28.1,0001.9,0013.51,0007.93,0007.20
2021-08-22 14:01:00,,0826.4,4.99,0.00,29.5,28.8,00.0,38.7,31.3,28.7,0002.2,0013.11,0007.90,0007.16
2021-08-22 14:02:00,,0826.3,5.01,0.00,29.5,28.8,00.0,38.7,31.3,29.1,0002.3,0013.03,0007.83,0007.10
2021-08-22 14:03:00,,0826.4,5.01,0.00,29.5,28.9,00.0,38.7,31.3,29.4,0002.2,0012.93,0007.76,0007.06
2021-08-22 14:04:00,,0826.5,4.99,0.00,29.5,28.9,00.0,38.7,31.3,28.9,0002.0,0013.26,0007.70,0007.00
2021-08-22 14:05:00,,0826.5,4.99,0.00,29.5,28.9,00.0,38.7,31.3,29.1,0001.8,0013.44,0007.70,0006.96
2021-08-22 14:06:00,,0826.5,5.01,0.00,29.5,28.9,00.0,38.7,31.3,29.4,0001.3,0013.84,0007.71,0006.96
2021-08-22 14:07:00,,0826.3,4.99,0.00,29.5,28.9,00.0,38.7,31.3,28.8,0001.2,0013.80,0007.73,0006.94
2021-08-22 14:08:00,,0826.2,5.01,0.00,29.5,28.9,00.0,38.7,31.3,28.5,0001.3,0013.94,0007.73,0006.92
2021-08-22 14:09:00,,0826.2,4.99,0.00,29.6,28.9,00.0,38.7,31.4,29.6,0001.1,0014.02,0007.71,0006.92
2021-08-22 14:10:00,,0826.4,4.99,0.00,29.6,29.0,00.0,38.7,31.4,29.2,0001.1,0013.31,0007.69,0006.93
2021-08-22 14:11:00,,0826.4,5.01,0.00,29.6,29.0,00.0,38.7,31.4,28.7,0001.4,0013.42,0007.70,0006.93
2021-08-22 14:12:00,,0826.4,5.01,0.00,29.6,29.0,00.0,38.7,31.4,28.2,0001.2,0014.00,0007.64,0006.89
2021-08-22 14:13:00,,0826.3,5.00,0.00,29.6,28.9,00.0,38.7,31.4,29.1,0001.4,0014.76,0007.69,0006.88
2021-08-22 14:14:00,,0826.5,5.00,0.00,29.6,28.9,00.0,38.7,31.3,29.0,0001.4,0014.98,0007.67,0006.87
2021-08-22 14:15:00,,0826.2,5.00,0.00,29.6,28.9,00.0,38.7,31.3,28.1,0001.3,0014.99,0007.63,0006.85
2021-08-22 14:16:00,,0826.4,5.01,0.00,29.6,29.0,00.0,38.7,31.4,28.0,0001.4,0015.30,0007.56,0006.80
2021-08-22 14:17:00,,0826.4,5.00,0.00,29.6,29.0,00.0,38.7,31.4,28.6,0001.8,0014.85,0007.49,0006.75
2021-08-22 14:18:00,,0826.5,5.00,0.00,29.6,29.0,00.0,38.7,31.3,28.2,0001.9,0014.80,0007.46,0006.70
2021-08-22 14:19:00,,0826.5,5.00,0.00,29.6,29.0,00.0,38.7,31.3,28.4,0001.6,0014.91,0007.42,0006.66
2021-08-22 14:20:00,,0826.2,4.99,0.00,29.6,29.0,00.0,38.7,31.3,28.7,0001.5,0015.06,0007.41,0006.62
2021-08-22 14:21:00,,0826.1,5.00,0.00,29.6,29.0,00.0,38.7,31.4,28.5,0001.4,0014.86,0007.41,0006.61
2021-08-22 14:22:00,,0826.2,4.99,0.00,29.6,29.0,00.0,38.7,31.4,28.8,0001.2,0015.20,0007.42,0006.59
2021-08-22 14:23:00,,0826.2,5.01,0.00,29.6,29.0,00.0,38.7,31.4,29.1,0001.3,0014.43,0007.42,0006.60
2021-08-22 14:24:00,,0826.2,5.00,0.00,29.6,29.0,00.0,38.7,31.4,29.1,0001.6,0013.79,0007.36,0006.58
2021-08-22 14:25:00,,0826.2,4.97,0.00,29.7,29.1,00.0,38.8,31.5,29.3,0001.5,0013.70,0007.35,0006.55
2021-08-22 14:26:00,,0826.2,5.00,0.00,29.7,29.1,00.0,38.8,31.5,29.3,0001.8,0013.40,0007.34,0006.55
2021-08-22 14:27:00,,0826.3,5.01,0.00,29.7,29.1,00.0,38.8,31.4,29.7,0001.8,0012.82,0007.36,0006.57
2021-08-22 14:28:00,,0826.4,5.01,0.00,29.7,29.1,00.0,38.8,31.4,29.7,0001.5,0012.88,0007.37,0006.61
2021-08-22 14:29:00,,0826.2,5.00,0.00,29.7,29.0,00.0,38.8,31.4,29.4,0001.1,0012.80,0007.38,0006.64
2021-08-22 14:30:00,,0826.2,4.99,0.00,29.7,29.0,00.0,38.8,31.4,29.4,0001.2,0012.59,0007.42,0006.67
2021-08-22 14:31:00,,0826.2,5.01,0.00,29.7,29.0,00.0,38.8,31.4,29.1,0001.4,0012.95,0007.40,0006.68
2021-08-22 14:32:00,,0826.2,4.99,0.00,29.7,29.0,00.0,38.8,31.5,29.1,0001.5,0013.29,0007.38,0006.68
2021-08-22 14:33:00,,0826.2,5.00,0.00,29.7,29.1,00.0,38.8,31.5,28.7,0001.4,0012.75,0007.34,0006.69
2021-08-22 14:34:00,,0826.1,5.01,0.00,29.7,29.1,00.0,38.8,31.5,28.3,0001.3,0012.84,0007.39,0006.70
2021-08-22 14:35:00,,0826.2,5.00,0.00,29.7,29.1,00.0,38.8,31.5,28.8,0001.0,0013.03,0007.41,0006.71
2021-08-22 14:36:00,,0826.2,5.00,0.00,29.8,29.2,00.0,38.8,31.6,30.1,0001.0,0012.92,0007.40,0006.73
2021-08-22 14:37:00,,0826.2,4.99,0.00,29.8,29.2,00.0,38.9,31.6,29.6,0000.7,0012.89,0007.40,0006.74
2021-08-22 14:38:00,,0826.3,5.01,0.00,29.8,29.2,00.0,38.9,31.6,29.2,0000.8,0012.93,0007.40,0006.73
2021-08-22 14:39:00,,0826.3,5.00,0.00,29.9,29.2,00.0,38.9,31.7,29.1,0001.0,0012.88,0007.38,0006.72
2021-08-22 14:40:00,,0826.2,5.00,0.00,29.9,29.3,00.0,38.9,31.7,29.1,0001.2,0012.89,0007.37,0006.70
2021-08-22 14:41:00,,0826.2,4.99,0.00,29.9,29.3,00.0,38.9,31.7,29.2,0001.3,0013.21,0007.36,0006.69
2021-08-22 14:42:00,,0826.2,5.01,0.00,29.9,29.3,00.0,38.9,31.7,28.9,0001.3,0012.85,0007.33,0006.69
2021-08-22 14:43:00,,0826.2,5.00,0.00,30.0,29.3,00.0,39.0,31.8,28.8,0001.2,0012.82,0007.35,0006.70
2021-08-22 14:44:00,,0826.4,4.99,0.00,30.0,29.4,00.0,39.0,31.7,28.0,0001.1,0012.94,0007.40,0006.72
2021-08-22 14:45:00,,0826.2,5.01,0.00,30.0,29.4,00.0,39.0,31.8,27.3,0001.2,0012.92,0007.37,0006.74
2021-08-22 14:46:00,,0826.2,5.00,0.00,30.0,29.5,00.0,39.0,31.8,27.2,0001.5,0012.64,0007.34,0006.74
2021-08-22 14:47:00,,0826.2,5.01,0.00,30.1,29.5,00.0,39.1,31.9,27.5,0001.6,0012.44,0007.39,0006.76
2021-08-22 14:48:00,,0826.2,4.99,0.00,30.1,29.5,00.0,39.1,31.9,27.8,0001.7,0012.47,0007.41,0006.76
2021-08-22 14:49:00,,0826.2,5.00,0.00,30.1,29.5,00.0,39.1,31.9,28.3,0001.8,0012.53,0007.42,0006.77
2021-08-22 14:50:00,,0826.2,4.99,0.00,30.1,29.5,00.0,39.1,31.9,26.8,0001.8,0012.55,0007.43,0006.78
2021-08-22 14:51:00,,0826.2,5.00,0.00,30.2,29.6,00.0,39.1,32.0,26.8,0001.8,0012.62,0007.48,0006.82
2021-08-22 14:52:00,,0826.2,5.01,0.00,30.2,29.6,00.0,39.2,32.0,27.3,0002.1,0012.27,0007.53,0006.88
2021-08-22 14:53:00,,0826.2,5.00,0.00,30.2,29.6,00.0,39.2,32.0,27.3,0001.8,0012.00,0007.60,0006.92
2021-08-22 14:54:00,,0826.2,5.00,0.00,30.2,29.6,00.0,39.2,32.0,26.7,0001.9,0011.83,0007.64,0006.95
2021-08-22 14:55:00,,0826.2,5.00,0.00,30.3,29.7,00.0,39.2,32.0,26.6,0002.2,0012.02,0007.69,0006.96
2021-08-22 14:56:00,,0826.2,5.01,0.00,30.3,29.7,00.0,39.3,32.1,26.7,0002.2,0012.89,0007.70,0006.97
2021-08-22 14:57:00,,0826.2,5.00,0.00,30.3,29.7,00.0,39.3,32.1,26.9,0002.0,0013.04,0007.74,0006.99
2021-08-22 14:58:00,,0826.1,5.00,0.00,30.3,29.7,00.0,39.3,32.1,26.9,0002.0,0013.43,0007.76,0006.99
2021-08-22 14:59:00,,0826.2,5.02,0.00,30.4,29.7,00.0,39.3,32.2,28.0,0002.1,0013.82,0007.80,0007.01
